Fairbanks, AK

4:19 AM AKDT on May 23, 2017 (GMT -0800)
Fairbanks International

Weather History for PAFA - September, 2013

Change the Weather History Date:

Monday, September 2, 2013

  Actual Average Record
Temperature  
Mean Temperature 54 °F 51 °F  
Max Temperature 61 °F 61 °F 74 °F (1917)
Min Temperature 47 °F 41 °F 18 °F (1922)
Degree Days  
Heating Degree Days 11 14  
Month to date heating degree days 32 28  
Since 1 July heating degree days 291 417  
Cooling Degree Days 0 0  
Month to date cooling degree days 0 0  
Year to date cooling degree days 226 61  
Growing Degree Days 2 (Base 50)    
Moisture  
Dew Point 48 °F    
Average Humidity 83    
Maximum Humidity 90    
Minimum Humidity 64    
Precipitation  
Precipitation 0.31 in 0.05 in 0.86 in (1955)
Month to date precipitation 0.33 0.10  
Year to date precipitation 6.13 7.67  
Snow  
Snow 0.00 in 0.00 in 1.60 in (1980)
Month to date snowfall 0.0 0.0  
Since 1 July snowfall 0.0 T  
Since 1 September snowfall 0.0 0.0  
Snow Depth 0.00 in    
Sea Level Pressure  
Sea Level Pressure 29.53 in    
Wind  
Wind Speed 6 mph (NNE)    
Max Wind Speed 8 mph    
Max Gust Speed -    
Visibility 10 miles    
Events Rain    
T = Trace of Precipitation, MM = Missing Value Source: NWS Daily Summary

Daily Weather History Graph

Daily Weather History Graph

Search for Another Location

Airport or City:

Trip Planner

Search our weather history database for the weather conditions in past years. The results will help you decide how hot, cold, wet, or windy it might be!

Date:

Astronomy

Sep. 02, 2013 Rise Set
Actual Time 6:35 AM AKDT 9:04 PM AKDT
Civil Twilight 5:41 AM AKDT 9:57 PM AKDT
Nautical Twilight 4:25 AM AKDT 11:12 PM AKDT
Astronomical Twilight 2:23 AM AKDT 1:18 AM AKDT
Moon 3:24 AM AKDT (9/2) 7:45 PM AKDT (9/2)
Length of Visible Light 16h 16m
Length of Day
14h 28m
Waning Crescent, 7% of the Moon is Illuminated
Sep 2
Waning Crescent
Sep 5
New
Sep 12
First Quarter
Sep 19
Full
Sep 26
Last Quarter

Hourly Weather History & Observations

Time (AKDT) Temp. Dew Point Humidity Pressure Visibility Wind Dir Wind Speed Gust Speed Precip Events Conditions
12:53 AM 46.9 °F 42.1 °F 83% 29.66 in 10.0 mi North 5.8 mph - 0.00 in Rain Light Rain
1:53 AM 46.9 °F 42.1 °F 83% 29.65 in 10.0 mi NNE 5.8 mph - 0.02 in Rain Light Rain
2:53 AM 46.9 °F 42.1 °F 83% 29.64 in 10.0 mi NNE 5.8 mph - 0.03 in Rain Light Rain
3:53 AM 46.9 °F 43.0 °F 86% 29.64 in 8.0 mi North 5.8 mph - 0.06 in Rain Rain
4:53 AM 46.9 °F 44.1 °F 90% 29.62 in 8.0 mi NNE 5.8 mph - 0.06 in Rain Light Rain
5:53 AM 46.9 °F 44.1 °F 90% 29.61 in 9.0 mi NNE 4.6 mph - 0.04 in Rain Light Rain
6:53 AM 48.0 °F 45.0 °F 89% 29.60 in 10.0 mi North 4.6 mph - 0.03 in Rain Light Rain
7:53 AM 48.0 °F 45.0 °F 89% 29.59 in 7.0 mi North 5.8 mph - 0.05 in Rain Light Rain
8:53 AM 50.0 °F 46.0 °F 86% 29.58 in 10.0 mi North 4.6 mph - 0.01 in Rain Light Rain
9:53 AM 50.0 °F 46.9 °F 89% 29.55 in 10.0 mi NNE 5.8 mph - 0.00 in   Overcast
10:53 AM 52.0 °F 48.0 °F 86% 29.55 in 10.0 mi North 6.9 mph - N/A   Overcast
11:53 AM 53.1 °F 48.0 °F 83% 29.55 in 10.0 mi North 5.8 mph - 0.00 in   Overcast
12:53 PM 54.0 °F 48.9 °F 83% 29.54 in 10.0 mi NNE 5.8 mph - 0.00 in Rain Light Rain
1:53 PM 55.0 °F 50.0 °F 83% 29.54 in 10.0 mi North 8.1 mph - 0.01 in   Overcast
2:53 PM 55.9 °F 52.0 °F 87% 29.52 in 10.0 mi North 8.1 mph - 0.01 in Rain Light Rain
3:53 PM 60.1 °F 51.1 °F 72% 29.49 in 10.0 mi NNE 8.1 mph - 0.00 in Rain Light Rain
4:53 PM 60.1 °F 51.1 °F 72% 29.47 in 10.0 mi ENE 5.8 mph - 0.00 in   Overcast
5:53 PM 61.0 °F 51.1 °F 70% 29.46 in 10.0 mi NNE 4.6 mph - N/A   Mostly Cloudy
6:53 PM 60.1 °F 53.1 °F 78% 29.44 in 10.0 mi North 5.8 mph - N/A   Mostly Cloudy
7:53 PM 57.9 °F 53.1 °F 84% 29.43 in 10.0 mi Calm Calm - N/A   Mostly Cloudy
8:53 PM 57.0 °F 52.0 °F 83% 29.41 in 10.0 mi North 3.5 mph - N/A   Mostly Cloudy
9:53 PM 55.9 °F 52.0 °F 87% 29.42 in 10.0 mi NE 3.5 mph - N/A   Overcast
10:53 PM 54.0 °F 51.1 °F 90% 29.41 in 10.0 mi NE 4.6 mph - N/A   Mostly Cloudy
11:53 PM 53.1 °F 50.0 °F 89% 29.39 in 10.0 mi NW 3.5 mph - N/A   Mostly Cloudy